Regional Weather Roundup
Issued by NWS

Home | Current Version | Previous Version | Graphics & Text | Print | Product List | Glossary On
Versions: 1 2 3 4 5 6 7 8 9 10 11 12 13 14 15 16 17 18 19 20 21 22 23 24 25 26 27 28 29 30 31 32 33 34 35 36 37 38 39 40 41 42 43 44 45 46 47 48 49 50
467
ASUS45 KBOI 290410
RWRID

IDAHO REGIONAL WEATHER ROUNDUP
NATIONAL WEATHER SERVICE BOISE ID
1000 PM MDT THU JUL 28 2016

NOTE: "FAIR" INDICATES FEW OR NO CLOUDS BELOW 12000 FEET
WITH NO SIGNIFICANT WEATHER AND/OR OBSTRUCTIONS TO VISIBILITY

IDZ012-014-290500-
SOUTHWEST IDAHO


CITY           SKY/WX    TMP DP  RH WIND       PRES   REMARKS
BOISE          CLEAR     87  39  18 NE5       29.93R
CALDWELL       CLEAR     85  53  33 W7        29.91R
MOUNTAIN HOME  CLEAR     86  30  13 W12       29.94F
$$

IDZ016-017-290500-
SOUTHCENTRAL IDAHO


CITY           SKY/WX    TMP DP  RH WIND       PRES   REMARKS
BURLEY         CLEAR     70  53  54 SW6       30.02R
JEROME         CLEAR     79  42  26 SW5       30.02R
TWIN FALLS     CLEAR     80  38  22 SW12      30.03S
$$

IDZ019>023-290500-
SOUTHEAST IDAHO


CITY           SKY/WX    TMP DP  RH WIND       PRES   REMARKS
IDAHO FALLS    CLEAR     82  41  23 SE8       30.06R
POCATELLO      CLEAR     82  34  17 S13       30.04R
REXBURG        NOT AVBL
$$

IDZ006-010-011-018-031-032-290500-
CENTRAL IDAHO MOUNTAINS


CITY           SKY/WX    TMP DP  RH WIND       PRES   REMARKS
MCCALL         CLEAR     74  41  30 NE6       30.15R
HAILEY         CLEAR     73  39  29 W7        30.12R
STANLEY          N/A     62  30  29 CALM      30.24R
SALMON         CLEAR     75  43  31 CALM      30.03R
CHALLIS        CLEAR     78  35  21 NW8       30.09R
$$

IDZ002-004-006-007-026-290500-
NORTHERN IDAHO


CITY           SKY/WX    TMP DP  RH WIND       PRES   REMARKS
LEWISTON       CLEAR     91  45  20 N3        29.91R
LOWELL           N/A     72  59  63 N3        29.95R
COEUR D`ALENE  CLEAR     77  52  41 NE3       29.96R
MULLAN PASS    CLEAR     65  41  41 NW5       30.26R
$$




USA.gov is the U.S. government's official web portal to all federal, state and local government web resources and services.